Time,TemperatureF,DewpointF,PressureIn,WindDirection,WindDirectionDegrees,WindSpeedMPH,WindSpeedGustMPH,Humidity,HourlyPrecipIn,Conditions,Clouds,dailyrainin,SoftwareType,DateUTC
2013-05-30 00:00:00,75.7,62.0,30.12,WSW,255,0.0,4.7,64,0.00,,,0.00,WX3IN1Plus v1.30,2013-05-30 04:00:00,
2013-05-30 00:01:00,75.6,62.7,30.12,SSW,212,0.1,4.7,65,0.00,,,0.00,WX3IN1Plus v1.30,2013-05-30 04:01:00,
2013-05-30 00:06:00,75.4,62.7,30.12,SSW,213,0.8,5.4,65,0.00,,,0.00,WX3IN1Plus v1.30,2013-05-30 04:06:00,
2013-05-30 00:11:00,75.5,62.7,30.12,WSW,237,2.2,4.5,65,0.00,,,0.00,WX3IN1Plus v1.30,2013-05-30 04:11:00,
2013-05-30 00:16:00,75.3,62.4,30.12,SSW,203,0.0,5.4,65,0.00,,,0.00,WX3IN1Plus v1.30,2013-05-30 04:16:00,
2013-05-30 00:21:00,75.2,62.4,30.12,SW,223,0.5,5.2,65,0.00,,,0.00,WX3IN1Plus v1.30,2013-05-30 04:21:00,
2013-05-30 00:26:00,75.2,62.4,30.12,West,262,2.5,5.2,65,0.00,,,0.00,WX3IN1Plus v1.30,2013-05-30 04:26:00,
2013-05-30 00:31:00,75.0,62.0,30.12,WSW,254,0.3,3.9,65,0.00,,,0.00,WX3IN1Plus v1.30,2013-05-30 04:31:00,
2013-05-30 00:36:00,75.1,62.0,30.12,WSW,258,1.9,5.6,65,0.00,,,0.00,WX3IN1Plus v1.30,2013-05-30 04:36:00,
2013-05-30 00:41:00,74.8,61.8,30.12,WSW,240,2.7,4.9,65,0.00,,,0.00,WX3IN1Plus v1.30,2013-05-30 04:41:00,
2013-05-30 00:46:00,74.8,61.8,30.12,SW,232,2.9,5.3,65,0.00,,,0.00,WX3IN1Plus v1.30,2013-05-30 04:46:00,
2013-05-30 00:51:00,74.8,61.8,30.12,WSW,258,1.6,4.7,65,0.00,,,0.00,WX3IN1Plus v1.30,2013-05-30 04:51:00,
2013-05-30 00:56:00,74.4,61.5,30.12,SW,234,0.9,4.8,65,0.00,,,0.00,WX3IN1Plus v1.30,2013-05-30 04:56:00,
2013-05-30 01:01:00,74.4,61.5,30.13,WSW,247,0.0,2.0,65,0.00,,,0.00,WX3IN1Plus v1.30,2013-05-30 05:01:00,
2013-05-30 01:06:00,74.4,61.5,30.13,West,260,0.0,3.5,65,0.00,,,0.00,WX3IN1Plus v1.30,2013-05-30 05:06:00,
2013-05-30 01:11:00,74.2,61.5,30.13,WSW,243,1.1,4.7,66,0.00,,,0.00,WX3IN1Plus v1.30,2013-05-30 05:11:00,
2013-05-30 01:16:00,74.3,61.8,30.14,SW,226,3.9,5.9,66,0.00,,,0.00,WX3IN1Plus v1.30,2013-05-30 05:16:00,
2013-05-30 01:21:00,74.2,61.5,30.14,WSW,244,3.2,6.0,66,0.00,,,0.00,WX3IN1Plus v1.30,2013-05-30 05:21:00,
2013-05-30 01:26:00,73.9,61.3,30.14,SW,225,0.3,6.2,66,0.00,,,0.00,WX3IN1Plus v1.30,2013-05-30 05:26:00,
2013-05-30 01:31:00,73.7,61.3,30.14,WSW,241,0.0,5.0,66,0.00,,,0.00,WX3IN1Plus v1.30,2013-05-30 05:31:00,
2013-05-30 01:36:00,73.8,61.3,30.14,SW,215,0.0,4.9,66,0.00,,,0.00,WX3IN1Plus v1.30,2013-05-30 05:36:00,
2013-05-30 01:41:00,73.8,61.3,30.14,SW,236,3.2,4.8,66,0.00,,,0.00,WX3IN1Plus v1.30,2013-05-30 05:41:00,
2013-05-30 01:46:00,73.6,61.3,30.14,SW,216,0.4,7.5,66,0.00,,,0.00,WX3IN1Plus v1.30,2013-05-30 05:46:00,
2013-05-30 01:51:00,73.6,61.3,30.14,WSW,258,2.4,6.1,66,0.00,,,0.00,WX3IN1Plus v1.30,2013-05-30 05:51:00,
2013-05-30 01:56:00,73.7,61.3,30.14,WSW,239,1.3,4.7,66,0.00,,,0.00,WX3IN1Plus v1.30,2013-05-30 05:56:00,
2013-05-30 02:01:00,73.3,61.3,30.15,South,177,0.0,3.6,67,0.00,,,0.00,WX3IN1Plus v1.30,2013-05-30 06:01:00,
2013-05-30 02:06:00,73.4,61.5,30.14,WSW,247,2.7,5.2,67,0.00,,,0.00,WX3IN1Plus v1.30,2013-05-30 06:06:00,
2013-05-30 02:11:00,73.3,61.3,30.14,WSW,258,2.2,4.2,67,0.00,,,0.00,WX3IN1Plus v1.30,2013-05-30 06:11:00,
2013-05-30 02:16:00,73.2,61.3,30.15,West,279,1.7,5.7,67,0.00,,,0.00,WX3IN1Plus v1.30,2013-05-30 06:16:00,
2013-05-30 02:21:00,73.2,61.3,30.15,WSW,240,5.3,5.7,67,0.00,,,0.00,WX3IN1Plus v1.30,2013-05-30 06:21:00,
2013-05-30 02:26:00,73.1,61.3,30.15,WSW,247,2.2,5.7,67,0.00,,,0.00,WX3IN1Plus v1.30,2013-05-30 06:26:00,
2013-05-30 02:31:00,73.0,61.3,30.15,WSW,253,3.0,4.4,68,0.00,,,0.00,WX3IN1Plus v1.30,2013-05-30 06:31:00,
2013-05-30 02:36:00,72.8,61.3,30.14,WSW,250,2.2,5.4,68,0.00,,,0.00,WX3IN1Plus v1.30,2013-05-30 06:36:00,
2013-05-30 02:41:00,72.7,61.3,30.14,WSW,250,3.9,5.7,68,0.00,,,0.00,WX3IN1Plus v1.30,2013-05-30 06:41:00,
2013-05-30 02:46:00,72.5,60.9,30.15,West,260,2.1,5.0,68,0.00,,,0.00,WX3IN1Plus v1.30,2013-05-30 06:46:00,
2013-05-30 02:51:00,72.6,60.9,30.15,West,279,1.6,5.5,68,0.00,,,0.00,WX3IN1Plus v1.30,2013-05-30 06:51:00,
2013-05-30 02:56:00,72.4,61.3,30.15,SW,230,1.6,3.2,69,0.00,,,0.00,WX3IN1Plus v1.30,2013-05-30 06:56:00,
2013-05-30 03:01:00,72.1,60.9,30.15,WSW,255,2.5,4.1,69,0.00,,,0.00,WX3IN1Plus v1.30,2013-05-30 07:01:00,
2013-05-30 03:06:00,72.0,60.9,30.15,SW,227,0.0,4.5,69,0.00,,,0.00,WX3IN1Plus v1.30,2013-05-30 07:06:00,
2013-05-30 03:11:00,72.1,60.9,30.15,WSW,255,3.4,3.7,69,0.00,,,0.00,WX3IN1Plus v1.30,2013-05-30 07:11:00,
2013-05-30 03:16:00,72.0,60.9,30.15,SSW,203,0.0,3.9,69,0.00,,,0.00,WX3IN1Plus v1.30,2013-05-30 07:16:00,
2013-05-30 03:21:00,71.9,60.9,30.15,WSW,240,1.7,4.5,69,0.00,,,0.00,WX3IN1Plus v1.30,2013-05-30 07:21:00,
2013-05-30 03:26:00,71.9,61.3,30.15,West,271,1.6,4.8,70,0.00,,,0.00,WX3IN1Plus v1.30,2013-05-30 07:26:00,
2013-05-30 03:31:00,71.5,60.8,30.15,SW,220,0.0,5.5,70,0.00,,,0.00,WX3IN1Plus v1.30,2013-05-30 07:31:00,
2013-05-30 03:36:00,71.6,60.9,30.15,West,260,1.7,4.8,70,0.00,,,0.00,WX3IN1Plus v1.30,2013-05-30 07:36:00,
2013-05-30 03:41:00,71.5,60.8,30.15,WSW,258,2.1,4.2,70,0.00,,,0.00,WX3IN1Plus v1.30,2013-05-30 07:41:00,
2013-05-30 03:46:00,71.3,60.8,30.15,SW,236,0.0,3.7,70,0.00,,,0.00,WX3IN1Plus v1.30,2013-05-30 07:46:00,
2013-05-30 03:51:00,71.5,60.8,30.15,SW,236,0.0,0.0,70,0.00,,,0.00,WX3IN1Plus v1.30,2013-05-30 07:51:00,
2013-05-30 03:56:00,71.0,60.8,30.15,SW,225,0.0,2.3,71,0.00,,,0.00,WX3IN1Plus v1.30,2013-05-30 07:56:00,
2013-05-30 04:01:00,70.9,60.8,30.15,SW,225,0.0,0.0,71,0.00,,,0.00,WX3IN1Plus v1.30,2013-05-30 08:01:00,
2013-05-30 04:06:00,71.1,60.9,30.15,SW,219,3.6,3.9,71,0.00,,,0.00,WX3IN1Plus v1.30,2013-05-30 08:06:00,
2013-05-30 04:11:00,70.7,60.9,30.15,WSW,247,1.7,3.7,72,0.00,,,0.00,WX3IN1Plus v1.30,2013-05-30 08:11:00,
2013-05-30 04:16:00,70.5,60.8,30.15,West,262,1.8,3.1,72,0.00,,,0.00,WX3IN1Plus v1.30,2013-05-30 08:16:00,
2013-05-30 04:21:00,70.5,60.8,30.15,WSW,250,3.7,4.1,72,0.00,,,0.00,WX3IN1Plus v1.30,2013-05-30 08:21:00,
2013-05-30 04:26:00,70.5,60.8,30.16,WSW,244,1.2,4.2,72,0.00,,,0.00,WX3IN1Plus v1.30,2013-05-30 08:26:00,
2013-05-30 04:31:00,70.5,60.8,30.15,SW,232,0.0,3.3,72,0.00,,,0.00,WX3IN1Plus v1.30,2013-05-30 08:31:00,
2013-05-30 04:36:00,70.2,60.9,30.16,WSW,251,0.0,2.4,73,0.00,,,0.00,WX3IN1Plus v1.30,2013-05-30 08:36:00,
2013-05-30 04:41:00,70.3,60.9,30.16,WSW,240,0.5,2.1,73,0.00,,,0.00,WX3IN1Plus v1.30,2013-05-30 08:41:00,
2013-05-30 04:46:00,70.1,60.8,30.16,WSW,253,1.4,2.8,73,0.00,,,0.00,WX3IN1Plus v1.30,2013-05-30 08:46:00,
2013-05-30 04:51:00,70.2,61.3,30.16,WSW,244,2.1,3.3,74,0.00,,,0.00,WX3IN1Plus v1.30,2013-05-30 08:51:00,
2013-05-30 04:56:00,69.8,60.9,30.16,WSW,237,2.0,4.0,74,0.00,,,0.00,WX3IN1Plus v1.30,2013-05-30 08:56:00,
2013-05-30 05:02:00,69.9,60.9,30.16,SW,223,0.5,3.7,74,0.00,,,0.00,WX3IN1Plus v1.30,2013-05-30 09:02:00,
2013-05-30 05:07:00,69.5,60.8,30.17,SSE,158,2.1,3.2,74,0.00,,,0.00,WX3IN1Plus v1.30,2013-05-30 09:07:00,
2013-05-30 05:12:00,69.8,60.9,30.17,SSW,205,1.4,4.3,74,0.00,,,0.00,WX3IN1Plus v1.30,2013-05-30 09:12:00,
2013-05-30 05:17:00,69.9,61.3,30.17,WSW,246,2.4,4.3,75,0.00,,,0.00,WX3IN1Plus v1.30,2013-05-30 09:17:00,
2013-05-30 05:22:00,69.9,61.3,30.17,WSW,248,4.5,5.2,75,0.00,,,0.00,WX3IN1Plus v1.30,2013-05-30 09:22:00,
2013-05-30 05:27:00,69.9,60.9,30.17,SSW,213,0.0,4.9,74,0.00,,,0.00,WX3IN1Plus v1.30,2013-05-30 09:27:00,
2013-05-30 05:32:00,70.1,60.9,30.17,WSW,240,0.8,5.3,74,0.00,,,0.00,WX3IN1Plus v1.30,2013-05-30 09:32:00,
2013-05-30 05:37:00,70.1,60.9,30.18,West,268,2.2,4.6,74,0.00,,,0.00,WX3IN1Plus v1.30,2013-05-30 09:37:00,
2013-05-30 05:42:00,70.4,61.5,30.18,WSW,247,2.7,4.5,74,0.00,,,0.00,WX3IN1Plus v1.30,2013-05-30 09:42:00,
2013-05-30 05:47:00,70.4,61.5,30.18,SW,216,0.9,3.4,74,0.00,,,0.00,WX3IN1Plus v1.30,2013-05-30 09:47:00,
2013-05-30 05:52:00,70.3,61.3,30.18,WSW,255,0.9,4.6,74,0.00,,,0.00,WX3IN1Plus v1.30,2013-05-30 09:52:00,
2013-05-30 05:57:00,70.3,61.3,30.18,SSW,209,1.1,4.9,74,0.00,,,0.00,WX3IN1Plus v1.30,2013-05-30 09:57:00,
2013-05-30 06:02:00,70.3,61.3,30.18,WSW,246,2.3,4.1,74,0.00,,,0.00,WX3IN1Plus v1.30,2013-05-30 10:02:00,
2013-05-30 06:07:00,70.3,61.3,30.18,West,261,2.7,4.4,74,0.00,,,0.00,WX3IN1Plus v1.30,2013-05-30 10:07:00,
2013-05-30 06:12:00,70.3,61.3,30.18,SSW,213,0.0,4.0,74,0.00,,,0.00,WX3IN1Plus v1.30,2013-05-30 10:12:00,
2013-05-30 06:17:00,70.3,61.3,30.19,SW,233,1.8,4.5,74,0.00,,,0.00,WX3IN1Plus v1.30,2013-05-30 10:17:00,
2013-05-30 06:22:00,70.5,61.5,30.19,WSW,257,0.9,4.5,74,0.00,,,0.00,WX3IN1Plus v1.30,2013-05-30 10:22:00,
2013-05-30 06:27:00,70.5,61.5,30.19,WSW,251,2.9,5.2,74,0.00,,,0.00,WX3IN1Plus v1.30,2013-05-30 10:27:00,
2013-05-30 06:32:00,70.3,61.3,30.20,WSW,250,1.9,4.4,74,0.00,,,0.00,WX3IN1Plus v1.30,2013-05-30 10:32:00,
2013-05-30 06:37:00,70.6,61.5,30.20,WSW,248,2.2,6.6,74,0.00,,,0.00,WX3IN1Plus v1.30,2013-05-30 10:37:00,
2013-05-30 06:42:00,70.8,61.8,30.19,West,264,2.1,3.9,74,0.00,,,0.00,WX3IN1Plus v1.30,2013-05-30 10:42:00,
2013-05-30 06:47:00,70.6,61.5,30.20,West,267,0.0,4.0,74,0.00,,,0.00,WX3IN1Plus v1.30,2013-05-30 10:47:00,
2013-05-30 06:52:00,70.7,61.8,30.20,SW,232,1.0,4.1,74,0.00,,,0.00,WX3IN1Plus v1.30,2013-05-30 10:52:00,
2013-05-30 06:57:00,70.9,61.8,30.20,WSW,254,1.3,3.7,74,0.00,,,0.00,WX3IN1Plus v1.30,2013-05-30 10:57:00,
2013-05-30 07:02:00,70.9,61.8,30.20,South,174,0.3,2.7,74,0.00,,,0.00,WX3IN1Plus v1.30,2013-05-30 11:02:00,
2013-05-30 07:07:00,71.1,62.0,30.20,SW,230,0.6,3.4,74,0.00,,,0.00,WX3IN1Plus v1.30,2013-05-30 11:07:00,
2013-05-30 07:12:00,71.3,62.0,30.20,WSW,246,0.0,2.1,73,0.00,,,0.00,WX3IN1Plus v1.30,2013-05-30 11:12:00,
2013-05-30 07:17:00,71.6,62.4,30.20,SW,216,1.1,2.1,73,0.00,,,0.00,WX3IN1Plus v1.30,2013-05-30 11:17:00,
2013-05-30 07:22:00,71.7,62.4,30.20,NNW,334,1.7,2.0,73,0.00,,,0.00,WX3IN1Plus v1.30,2013-05-30 11:22:00,
2013-05-30 07:27:00,71.7,61.8,30.19,SW,223,1.2,2.5,72,0.00,,,0.00,WX3IN1Plus v1.30,2013-05-30 11:27:00,
2013-05-30 07:32:00,72.3,62.0,30.19,ESE,113,0.0,2.1,71,0.00,,,0.00,WX3IN1Plus v1.30,2013-05-30 11:32:00,
2013-05-30 07:37:00,72.8,62.7,30.19,WNW,293,1.4,5.6,71,0.00,,,0.00,WX3IN1Plus v1.30,2013-05-30 11:37:00,
2013-05-30 07:42:00,73.1,62.4,30.20,West,261,0.5,4.4,70,0.00,,,0.00,WX3IN1Plus v1.30,2013-05-30 11:42:00,
2013-05-30 07:47:00,73.3,62.4,30.20,ESE,115,0.9,3.1,70,0.00,,,0.00,WX3IN1Plus v1.30,2013-05-30 11:47:00,
2013-05-30 07:52:00,73.4,62.4,30.20,SW,230,0.3,3.2,69,0.00,,,0.00,WX3IN1Plus v1.30,2013-05-30 11:52:00,
2013-05-30 07:57:00,73.4,62.4,30.20,North,4,1.5,5.9,69,0.00,,,0.00,WX3IN1Plus v1.30,2013-05-30 11:57:00,
2013-05-30 08:02:00,73.0,61.8,30.20,WSW,258,0.3,6.7,69,0.00,,,0.00,WX3IN1Plus v1.30,2013-05-30 12:02:00,
2013-05-30 08:07:00,73.3,62.0,30.20,West,275,0.6,2.4,69,0.00,,,0.00,WX3IN1Plus v1.30,2013-05-30 12:07:00,
2013-05-30 08:12:00,73.6,62.7,30.20,North,352,0.0,3.2,69,0.00,,,0.00,WX3IN1Plus v1.30,2013-05-30 12:12:00,
2013-05-30 08:17:00,73.4,62.4,30.20,West,274,0.4,6.0,69,0.00,,,0.00,WX3IN1Plus v1.30,2013-05-30 12:17:00,
2013-05-30 08:22:00,73.3,62.0,30.20,WNW,288,1.1,4.3,69,0.00,,,0.00,WX3IN1Plus v1.30,2013-05-30 12:22:00,
2013-05-30 08:27:00,73.5,62.4,30.20,SW,222,1.8,3.0,69,0.00,,,0.00,WX3IN1Plus v1.30,2013-05-30 12:27:00,
2013-05-30 08:32:00,73.7,62.9,30.20,West,260,0.4,4.9,70,0.00,,,0.00,WX3IN1Plus v1.30,2013-05-30 12:32:00,
2013-05-30 08:37:00,73.9,62.7,30.20,WNW,302,0.0,4.5,69,0.00,,,0.00,WX3IN1Plus v1.30,2013-05-30 12:37:00,
2013-05-30 08:42:00,74.3,62.7,30.20,West,274,0.0,3.5,68,0.00,,,0.00,WX3IN1Plus v1.30,2013-05-30 12:42:00,
2013-05-30 08:47:00,74.6,62.9,30.20,SSW,210,0.9,2.5,68,0.00,,,0.00,WX3IN1Plus v1.30,2013-05-30 12:47:00,
2013-05-30 08:52:00,74.9,62.9,30.20,NW,310,0.0,4.6,67,0.00,,,0.00,WX3IN1Plus v1.30,2013-05-30 12:52:00,
2013-05-30 08:57:00,75.0,62.9,30.20,WSW,250,2.5,3.6,67,0.00,,,0.00,WX3IN1Plus v1.30,2013-05-30 12:57:00,
2013-05-30 09:02:00,75.4,63.5,30.20,SSW,213,0.0,3.1,67,0.00,,,0.00,WX3IN1Plus v1.30,2013-05-30 13:02:00,
2013-05-30 09:07:00,76.0,63.3,30.20,SSW,208,0.0,3.2,66,0.00,,,0.00,WX3IN1Plus v1.30,2013-05-30 13:07:00,
2013-05-30 09:12:00,76.2,63.3,30.20,SW,232,0.9,4.1,65,0.00,,,0.00,WX3IN1Plus v1.30,2013-05-30 13:12:00,
2013-05-30 09:17:00,76.5,63.8,30.20,SW,230,1.1,3.2,66,0.00,,,0.00,WX3IN1Plus v1.30,2013-05-30 13:17:00,
2013-05-30 09:22:00,77.0,64.2,30.20,West,279,0.9,2.4,65,0.00,,,0.00,WX3IN1Plus v1.30,2013-05-30 13:22:00,
2013-05-30 09:27:00,77.0,64.2,30.20,WSW,257,0.9,2.7,65,0.00,,,0.00,WX3IN1Plus v1.30,2013-05-30 13:27:00,
2013-05-30 09:32:00,77.2,63.8,30.20,SSW,209,1.1,4.0,64,0.00,,,0.00,WX3IN1Plus v1.30,2013-05-30 13:32:00,
2013-05-30 09:37:00,77.8,64.2,30.20,NNW,347,2.4,2.9,64,0.00,,,0.00,WX3IN1Plus v1.30,2013-05-30 13:37:00,
2013-05-30 09:42:00,77.8,64.2,30.20,WNW,299,0.0,4.6,64,0.00,,,0.00,WX3IN1Plus v1.30,2013-05-30 13:42:00,
2013-05-30 09:47:00,78.4,63.8,30.20,WNW,282,1.2,4.9,62,0.00,,,0.00,WX3IN1Plus v1.30,2013-05-30 13:47:00,
2013-05-30 09:52:00,79.0,64.7,30.20,WNW,298,0.0,2.4,62,0.00,,,0.00,WX3IN1Plus v1.30,2013-05-30 13:52:00,
2013-05-30 09:57:00,79.3,64.4,30.20,WNW,285,3.1,5.1,61,0.00,,,0.00,WX3IN1Plus v1.30,2013-05-30 13:57:00,
2013-05-30 10:02:00,79.3,63.3,30.20,WNW,292,1.7,4.2,59,0.00,,,0.00,WX3IN1Plus v1.30,2013-05-30 14:02:00,
2013-05-30 10:07:00,79.9,64.7,30.20,SW,215,2.9,3.7,60,0.00,,,0.00,WX3IN1Plus v1.30,2013-05-30 14:07:00,
2013-05-30 10:12:00,80.1,63.8,30.20,NNE,12,0.6,5.0,58,0.00,,,0.00,WX3IN1Plus v1.30,2013-05-30 14:12:00,
2013-05-30 10:17:00,80.5,64.4,30.20,SSW,203,1.0,5.7,59,0.00,,,0.00,WX3IN1Plus v1.30,2013-05-30 14:17:00,
2013-05-30 10:22:00,80.9,63.8,30.20,NW,322,0.3,2.6,57,0.00,,,0.00,WX3IN1Plus v1.30,2013-05-30 14:22:00,
2013-05-30 10:27:00,80.9,63.8,30.20,WNW,291,0.6,2.9,57,0.00,,,0.00,WX3IN1Plus v1.30,2013-05-30 14:27:00,
2013-05-30 10:32:00,81.4,64.4,30.19,SW,233,0.0,2.7,57,0.00,,,0.00,WX3IN1Plus v1.30,2013-05-30 14:32:00,
2013-05-30 10:37:00,81.7,64.2,30.19,SW,216,0.8,2.7,56,0.00,,,0.00,WX3IN1Plus v1.30,2013-05-30 14:37:00,
2013-05-30 10:42:00,82.3,64.2,30.20,North,0,0.0,4.6,55,0.00,,,0.00,WX3IN1Plus v1.30,2013-05-30 14:42:00,
2013-05-30 10:47:00,82.4,63.8,30.20,SW,236,2.2,4.1,54,0.00,,,0.00,WX3IN1Plus v1.30,2013-05-30 14:47:00,
2013-05-30 10:52:00,82.9,64.2,30.20,North,354,0.0,5.2,54,0.00,,,0.00,WX3IN1Plus v1.30,2013-05-30 14:52:00,
2013-05-30 10:57:00,83.2,63.5,30.20,NNW,345,2.4,4.4,52,0.00,,,0.00,WX3IN1Plus v1.30,2013-05-30 14:57:00,
2013-05-30 11:02:00,83.6,64.4,30.20,West,281,0.9,4.3,53,0.00,,,0.00,WX3IN1Plus v1.30,2013-05-30 15:02:00,
2013-05-30 11:07:00,83.9,63.5,30.20,North,8,2.3,3.8,51,0.00,,,0.00,WX3IN1Plus v1.30,2013-05-30 15:07:00,
2013-05-30 11:12:00,84.1,63.8,30.20,NNE,23,0.4,5.2,51,0.00,,,0.00,WX3IN1Plus v1.30,2013-05-30 15:12:00,
2013-05-30 11:17:00,85.1,64.7,30.20,SW,219,4.6,7.8,51,0.00,,,0.00,WX3IN1Plus v1.30,2013-05-30 15:17:00,
2013-05-30 11:22:00,85.4,63.8,30.20,SW,220,1.4,6.5,49,0.00,,,0.00,WX3IN1Plus v1.30,2013-05-30 15:22:00,
2013-05-30 11:27:00,85.7,64.7,30.20,ENE,57,0.0,2.9,50,0.00,,,0.00,WX3IN1Plus v1.30,2013-05-30 15:27:00,
2013-05-30 11:32:00,85.6,64.2,30.20,WSW,247,0.0,4.2,49,0.00,,,0.00,WX3IN1Plus v1.30,2013-05-30 15:32:00,
2013-05-30 11:37:00,86.4,62.7,30.20,WNW,292,0.0,4.1,46,0.00,,,0.00,WX3IN1Plus v1.30,2013-05-30 15:37:00,
2013-05-30 11:42:00,86.9,62.0,30.20,East,80,0.6,4.1,44,0.00,,,0.00,WX3IN1Plus v1.30,2013-05-30 15:42:00,
2013-05-30 11:47:00,86.8,62.0,30.20,ESE,104,1.8,3.4,44,0.00,,,0.00,WX3IN1Plus v1.30,2013-05-30 15:47:00,
2013-05-30 11:52:00,86.7,62.4,30.19,WSW,240,5.3,5.3,45,0.00,,,0.00,WX3IN1Plus v1.30,2013-05-30 15:52:00,
2013-05-30 11:57:00,87.6,63.3,30.19,SW,226,1.7,5.4,45,0.00,,,0.00,WX3IN1Plus v1.30,2013-05-30 15:57:00,
2013-05-30 12:02:00,87.5,61.3,30.19,ENE,59,1.7,2.7,42,0.00,,,0.00,WX3IN1Plus v1.30,2013-05-30 16:02:00,
2013-05-30 12:07:00,87.7,59.9,30.19,ENE,61,0.0,2.8,40,0.00,,,0.00,WX3IN1Plus v1.30,2013-05-30 16:07:00,
2013-05-30 12:12:00,88.0,61.8,30.19,NNW,344,0.0,5.5,42,0.00,,,0.00,WX3IN1Plus v1.30,2013-05-30 16:12:00,
2013-05-30 12:17:00,88.3,60.4,30.19,West,261,1.1,2.8,40,0.00,,,0.00,WX3IN1Plus v1.30,2013-05-30 16:17:00,
2013-05-30 12:22:00,88.8,60.4,30.19,WSW,239,0.0,3.0,39,0.00,,,0.00,WX3IN1Plus v1.30,2013-05-30 16:22:00,
2013-05-30 12:27:00,89.0,60.9,30.19,SW,230,1.4,3.8,40,0.00,,,0.00,WX3IN1Plus v1.30,2013-05-30 16:27:00,
2013-05-30 12:32:00,89.1,59.9,30.19,North,352,3.0,3.0,38,0.00,,,0.00,WX3IN1Plus v1.30,2013-05-30 16:32:00,
2013-05-30 12:37:00,89.0,59.5,30.19,North,355,0.0,3.0,38,0.00,,,0.00,WX3IN1Plus v1.30,2013-05-30 16:37:00,
2013-05-30 12:42:00,89.1,60.8,30.19,NE,52,3.2,4.7,39,0.00,,,0.00,WX3IN1Plus v1.30,2013-05-30 16:42:00,
2013-05-30 12:47:00,89.3,58.8,30.18,WSW,255,1.4,5.5,36,0.00,,,0.00,WX3IN1Plus v1.30,2013-05-30 16:47:00,
2013-05-30 12:52:00,89.7,58.2,30.18,ENE,78,1.0,3.2,35,0.00,,,0.00,WX3IN1Plus v1.30,2013-05-30 16:52:00,
2013-05-30 12:57:00,89.9,60.4,30.18,WSW,254,1.4,4.1,38,0.00,,,0.00,WX3IN1Plus v1.30,2013-05-30 16:57:00,
2013-05-30 13:02:00,90.1,59.3,30.18,North,358,0.5,4.2,36,0.00,,,0.00,WX3IN1Plus v1.30,2013-05-30 17:02:00,
2013-05-30 13:07:00,90.9,61.5,30.18,WSW,247,3.5,7.5,38,0.00,,,0.00,WX3IN1Plus v1.30,2013-05-30 17:07:00,
2013-05-30 13:12:00,90.9,62.9,30.18,ESE,116,0.0,6.7,40,0.00,,,0.00,WX3IN1Plus v1.30,2013-05-30 17:12:00,
2013-05-30 13:17:00,91.1,61.5,30.18,NE,56,0.6,3.4,38,0.00,,,0.00,WX3IN1Plus v1.30,2013-05-30 17:17:00,
2013-05-30 13:22:00,91.7,62.0,30.18,NW,313,2.1,5.2,38,0.00,,,0.00,WX3IN1Plus v1.30,2013-05-30 17:22:00,
2013-05-30 13:27:00,91.5,62.7,30.18,SSE,151,1.8,5.6,39,0.00,,,0.00,WX3IN1Plus v1.30,2013-05-30 17:27:00,
2013-05-30 13:32:00,91.3,63.3,30.18,South,188,3.1,5.5,40,0.00,,,0.00,WX3IN1Plus v1.30,2013-05-30 17:32:00,
2013-05-30 13:37:00,90.9,62.9,30.18,WSW,250,1.0,9.3,40,0.00,,,0.00,WX3IN1Plus v1.30,2013-05-30 17:37:00,
2013-05-30 13:42:00,91.1,62.9,30.17,SSE,167,3.0,5.2,40,0.00,,,0.00,WX3IN1Plus v1.30,2013-05-30 17:42:00,
2013-05-30 13:47:00,91.3,64.7,30.17,South,185,1.8,6.9,42,0.00,,,0.00,WX3IN1Plus v1.30,2013-05-30 17:47:00,
2013-05-30 13:52:00,90.7,64.9,30.17,SSW,199,2.2,6.6,43,0.00,,,0.00,WX3IN1Plus v1.30,2013-05-30 17:52:00,
2013-05-30 13:57:00,89.6,64.7,30.17,WSW,254,1.8,6.2,44,0.00,,,0.00,WX3IN1Plus v1.30,2013-05-30 17:57:00,
2013-05-30 14:02:00,89.4,66.2,30.17,SW,216,3.6,8.3,47,0.00,,,0.00,WX3IN1Plus v1.30,2013-05-30 18:02:00,
2013-05-30 14:07:00,89.3,65.4,30.17,SW,229,1.6,5.9,46,0.00,,,0.00,WX3IN1Plus v1.30,2013-05-30 18:07:00,
2013-05-30 14:12:00,89.9,65.8,30.17,WSW,251,0.1,6.8,46,0.00,,,0.00,WX3IN1Plus v1.30,2013-05-30 18:12:00,
2013-05-30 14:17:00,90.0,66.2,30.17,WSW,258,5.5,7.9,46,0.00,,,0.00,WX3IN1Plus v1.30,2013-05-30 18:17:00,
2013-05-30 14:22:00,90.1,66.2,30.16,SSW,210,4.5,9.6,46,0.00,,,0.00,WX3IN1Plus v1.30,2013-05-30 18:22:00,
2013-05-30 14:27:00,90.3,66.2,30.16,WSW,246,5.0,9.3,46,0.00,,,0.00,WX3IN1Plus v1.30,2013-05-30 18:27:00,
2013-05-30 14:32:00,90.1,66.2,30.16,SSW,209,1.5,9.2,46,0.00,,,0.00,WX3IN1Plus v1.30,2013-05-30 18:32:00,
2013-05-30 14:37:00,90.2,66.2,30.16,SW,220,4.1,9.0,46,0.00,,,0.00,WX3IN1Plus v1.30,2013-05-30 18:37:00,
2013-05-30 14:42:00,90.0,66.2,30.16,WSW,246,5.1,8.7,46,0.00,,,0.00,WX3IN1Plus v1.30,2013-05-30 18:42:00,
2013-05-30 14:47:00,90.1,66.2,30.16,SW,232,3.1,10.5,46,0.00,,,0.00,WX3IN1Plus v1.30,2013-05-30 18:47:00,
2013-05-30 14:52:00,90.1,64.9,30.16,South,178,4.1,10.6,44,0.00,,,0.00,WX3IN1Plus v1.30,2013-05-30 18:52:00,
2013-05-30 14:57:00,90.4,65.3,30.15,WSW,253,6.4,9.5,44,0.00,,,0.00,WX3IN1Plus v1.30,2013-05-30 18:57:00,
2013-05-30 15:02:00,90.2,64.4,30.15,WSW,240,6.7,10.9,43,0.00,,,0.00,WX3IN1Plus v1.30,2013-05-30 19:02:00,
2013-05-30 15:07:00,90.2,64.9,30.15,WSW,239,0.9,10.1,44,0.00,,,0.00,WX3IN1Plus v1.30,2013-05-30 19:07:00,
2013-05-30 15:12:00,90.6,64.2,30.15,West,265,1.4,8.2,42,0.00,,,0.00,WX3IN1Plus v1.30,2013-05-30 19:12:00,
2013-05-30 15:17:00,90.5,63.5,30.15,WSW,250,3.5,8.9,41,0.00,,,0.00,WX3IN1Plus v1.30,2013-05-30 19:17:00,
2013-05-30 15:22:00,90.8,63.5,30.15,SW,222,2.0,8.6,41,0.00,,,0.00,WX3IN1Plus v1.30,2013-05-30 19:22:00,
2013-05-30 15:27:00,90.9,62.9,30.15,WSW,244,4.3,10.9,40,0.00,,,0.00,WX3IN1Plus v1.30,2013-05-30 19:27:00,
2013-05-30 15:32:00,90.9,62.4,30.15,West,265,3.2,11.8,39,0.00,,,0.00,WX3IN1Plus v1.30,2013-05-30 19:32:00,
2013-05-30 15:37:00,90.8,62.7,30.15,South,191,1.0,6.7,40,0.00,,,0.00,WX3IN1Plus v1.30,2013-05-30 19:37:00,
2013-05-30 15:42:00,91.3,61.3,30.15,SE,126,1.7,9.6,37,0.00,,,0.00,WX3IN1Plus v1.30,2013-05-30 19:42:00,
2013-05-30 15:47:00,91.2,60.9,30.14,SW,234,7.2,9.6,37,0.00,,,0.00,WX3IN1Plus v1.30,2013-05-30 19:47:00,
2013-05-30 15:52:00,91.4,61.3,30.15,SSW,201,2.4,10.0,37,0.00,,,0.00,WX3IN1Plus v1.30,2013-05-30 19:52:00,
2013-05-30 15:57:00,91.6,62.9,30.14,SE,136,2.7,10.6,39,0.00,,,0.00,WX3IN1Plus v1.30,2013-05-30 19:57:00,
2013-05-30 16:02:00,91.3,62.7,30.14,WSW,240,0.7,7.2,39,0.00,,,0.00,WX3IN1Plus v1.30,2013-05-30 20:02:00,
2013-05-30 16:07:00,91.3,62.7,30.14,WSW,254,1.7,8.7,39,0.00,,,0.00,WX3IN1Plus v1.30,2013-05-30 20:07:00,
2013-05-30 16:12:00,91.2,62.4,30.14,WSW,243,3.6,8.9,39,0.00,,,0.00,WX3IN1Plus v1.30,2013-05-30 20:12:00,
2013-05-30 16:17:00,91.7,63.5,30.14,WSW,244,9.9,11.4,40,0.00,,,0.00,WX3IN1Plus v1.30,2013-05-30 20:17:00,
2013-05-30 16:22:00,91.3,63.3,30.15,South,189,2.1,10.3,40,0.00,,,0.00,WX3IN1Plus v1.30,2013-05-30 20:22:00,
2013-05-30 16:27:00,90.8,61.3,30.15,West,279,5.1,9.8,38,0.00,,,0.00,WX3IN1Plus v1.30,2013-05-30 20:27:00,
2013-05-30 16:32:00,90.7,62.7,30.15,SW,230,4.9,8.5,40,0.00,,,0.00,WX3IN1Plus v1.30,2013-05-30 20:32:00,
2013-05-30 16:37:00,90.2,62.9,30.15,West,268,1.7,11.2,41,0.00,,,0.00,WX3IN1Plus v1.30,2013-05-30 20:37:00,
2013-05-30 16:42:00,90.0,63.5,30.14,South,187,3.1,9.0,42,0.00,,,0.00,WX3IN1Plus v1.30,2013-05-30 20:42:00,
2013-05-30 16:47:00,89.8,64.2,30.14,SSW,199,3.6,8.8,43,0.00,,,0.00,WX3IN1Plus v1.30,2013-05-30 20:47:00,
2013-05-30 16:52:00,90.0,62.9,30.14,SSW,202,5.2,11.7,41,0.00,,,0.00,WX3IN1Plus v1.30,2013-05-30 20:52:00,
2013-05-30 16:57:00,90.1,62.0,30.14,WSW,248,8.5,9.6,40,0.00,,,0.00,WX3IN1Plus v1.30,2013-05-30 20:57:00,
2013-05-30 17:02:00,90.0,62.0,30.14,SSE,160,3.2,12.8,40,0.00,,,0.00,WX3IN1Plus v1.30,2013-05-30 21:02:00,
2013-05-30 17:07:00,90.3,62.9,30.14,SW,232,6.3,8.5,41,0.00,,,0.00,WX3IN1Plus v1.30,2013-05-30 21:07:00,
2013-05-30 17:12:00,90.1,62.0,30.13,WSW,243,4.7,7.5,40,0.00,,,0.00,WX3IN1Plus v1.30,2013-05-30 21:12:00,
2013-05-30 17:17:00,91.1,62.9,30.13,South,184,2.6,6.2,40,0.00,,,0.00,WX3IN1Plus v1.30,2013-05-30 21:17:00,
2013-05-30 17:22:00,91.2,62.4,30.13,WSW,240,3.2,9.1,39,0.00,,,0.00,WX3IN1Plus v1.30,2013-05-30 21:22:00,
2013-05-30 17:27:00,91.2,62.9,30.13,West,267,4.6,6.9,40,0.00,,,0.00,WX3IN1Plus v1.30,2013-05-30 21:27:00,
2013-05-30 17:32:00,91.6,63.5,30.13,WNW,295,1.3,9.1,40,0.00,,,0.00,WX3IN1Plus v1.30,2013-05-30 21:32:00,
2013-05-30 17:37:00,91.3,64.2,30.13,West,279,5.0,8.5,41,0.00,,,0.00,WX3IN1Plus v1.30,2013-05-30 21:37:00,
2013-05-30 17:42:00,91.2,63.8,30.13,WNW,289,6.5,7.8,41,0.00,,,0.00,WX3IN1Plus v1.30,2013-05-30 21:42:00,
2013-05-30 17:47:00,91.0,63.8,30.12,SSW,208,3.1,7.7,41,0.00,,,0.00,WX3IN1Plus v1.30,2013-05-30 21:47:00,
2013-05-30 17:52:00,90.9,64.4,30.12,SW,233,7.2,8.5,42,0.00,,,0.00,WX3IN1Plus v1.30,2013-05-30 21:52:00,
2013-05-30 17:57:00,90.8,64.9,30.12,SW,222,0.0,7.3,43,0.00,,,0.00,WX3IN1Plus v1.30,2013-05-30 21:57:00,
2013-05-30 18:02:00,90.7,65.4,30.12,SSE,165,1.0,7.0,44,0.00,,,0.00,WX3IN1Plus v1.30,2013-05-30 22:02:00,
2013-05-30 18:07:00,90.9,65.8,30.12,South,171,0.4,7.5,44,0.00,,,0.00,WX3IN1Plus v1.30,2013-05-30 22:07:00,
2013-05-30 18:12:00,90.3,65.4,30.12,SSE,168,0.0,4.5,45,0.00,,,0.00,WX3IN1Plus v1.30,2013-05-30 22:12:00,
2013-05-30 18:17:00,90.8,65.4,30.12,WSW,258,3.1,6.4,44,0.00,,,0.00,WX3IN1Plus v1.30,2013-05-30 22:17:00,
2013-05-30 18:23:00,90.9,65.8,30.12,SW,229,4.6,5.7,44,0.00,,,0.00,WX3IN1Plus v1.30,2013-05-30 22:23:00,
2013-05-30 18:27:00,90.2,65.4,30.12,West,264,2.0,6.1,45,0.00,,,0.00,WX3IN1Plus v1.30,2013-05-30 22:27:00,
2013-05-30 18:32:00,89.8,65.8,30.12,WSW,257,4.5,6.3,46,0.00,,,0.00,WX3IN1Plus v1.30,2013-05-30 22:32:00,
2013-05-30 18:38:00,90.0,66.2,30.12,SE,127,0.3,5.4,46,0.00,,,0.00,WX3IN1Plus v1.30,2013-05-30 22:38:00,
2013-05-30 18:43:00,90.0,66.2,30.12,SW,219,2.2,7.0,46,0.00,,,0.00,WX3IN1Plus v1.30,2013-05-30 22:43:00,
2013-05-30 18:48:00,89.6,66.3,30.13,West,268,3.6,5.7,47,0.00,,,0.00,WX3IN1Plus v1.30,2013-05-30 22:48:00,
2013-05-30 18:53:00,89.7,66.3,30.13,WSW,237,0.3,5.7,47,0.00,,,0.00,WX3IN1Plus v1.30,2013-05-30 22:53:00,
2013-05-30 18:58:00,89.6,66.3,30.13,SW,216,4.2,7.9,47,0.00,,,0.00,WX3IN1Plus v1.30,2013-05-30 22:58:00,
2013-05-30 19:03:00,89.5,66.2,30.12,SW,236,0.0,4.2,47,0.00,,,0.00,WX3IN1Plus v1.30,2013-05-30 23:03:00,
2013-05-30 19:08:00,89.2,66.7,30.13,SW,234,3.9,5.8,48,0.00,,,0.00,WX3IN1Plus v1.30,2013-05-30 23:08:00,
2013-05-30 19:13:00,88.9,66.3,30.13,SW,217,0.0,4.4,48,0.00,,,0.00,WX3IN1Plus v1.30,2013-05-30 23:13:00,
2013-05-30 19:18:00,89.1,67.2,30.13,SSW,205,0.6,1.2,49,0.00,,,0.00,WX3IN1Plus v1.30,2013-05-30 23:18:00,
2013-05-30 19:23:00,88.3,65.8,30.13,NNW,347,0.0,5.2,48,0.00,,,0.00,WX3IN1Plus v1.30,2013-05-30 23:23:00,
2013-05-30 19:28:00,88.4,66.2,30.13,ESE,123,0.0,6.3,48,0.00,,,0.00,WX3IN1Plus v1.30,2013-05-30 23:28:00,
2013-05-30 19:33:00,88.1,65.8,30.13,SW,216,0.0,4.7,48,0.00,,,0.00,WX3IN1Plus v1.30,2013-05-30 23:33:00,
2013-05-30 19:38:00,87.8,65.4,30.13,WSW,243,3.7,4.6,48,0.00,,,0.00,WX3IN1Plus v1.30,2013-05-30 23:38:00,
2013-05-30 19:43:00,87.5,65.3,30.13,WSW,247,1.6,4.5,48,0.00,,,0.00,WX3IN1Plus v1.30,2013-05-30 23:43:00,
2013-05-30 19:48:00,87.4,64.9,30.13,WSW,243,1.8,4.3,48,0.00,,,0.00,WX3IN1Plus v1.30,2013-05-30 23:48:00,
2013-05-30 19:53:00,86.6,64.4,30.13,SW,223,1.2,6.1,48,0.00,,,0.00,WX3IN1Plus v1.30,2013-05-30 23:53:00,
2013-05-30 19:58:00,86.2,64.2,30.13,SW,217,3.3,5.7,48,0.00,,,0.00,WX3IN1Plus v1.30,2013-05-30 23:58:00,
2013-05-30 20:03:00,86.0,64.4,30.13,SW,225,0.0,4.2,49,0.00,,,0.00,WX3IN1Plus v1.30,2013-05-31 00:03:00,
2013-05-30 20:08:00,84.8,63.3,30.13,WSW,250,3.2,5.1,49,0.00,,,0.00,WX3IN1Plus v1.30,2013-05-31 00:08:00,
2013-05-30 20:13:00,84.5,63.5,30.13,SW,220,0.0,3.2,50,0.00,,,0.00,WX3IN1Plus v1.30,2013-05-31 00:13:00,
2013-05-30 20:18:00,84.4,64.2,30.13,SW,220,0.0,5.2,51,0.00,,,0.00,WX3IN1Plus v1.30,2013-05-31 00:18:00,
2013-05-30 20:23:00,84.1,63.8,30.13,WSW,240,2.2,2.4,51,0.00,,,0.00,WX3IN1Plus v1.30,2013-05-31 00:23:00,
2013-05-30 20:28:00,83.3,63.8,30.13,SW,233,1.3,5.2,52,0.00,,,0.00,WX3IN1Plus v1.30,2013-05-31 00:28:00,
2013-05-30 20:33:00,82.8,63.3,30.13,WSW,246,0.0,2.8,52,0.00,,,0.00,WX3IN1Plus v1.30,2013-05-31 00:33:00,
2013-05-30 20:38:00,82.6,63.5,30.13,SW,219,0.0,2.9,53,0.00,,,0.00,WX3IN1Plus v1.30,2013-05-31 00:38:00,
2013-05-30 20:43:00,82.3,63.5,30.13,SW,219,0.0,3.6,54,0.00,,,0.00,WX3IN1Plus v1.30,2013-05-31 00:43:00,
2013-05-30 20:48:00,82.1,63.5,30.13,WSW,237,3.7,3.9,54,0.00,,,0.00,WX3IN1Plus v1.30,2013-05-31 00:48:00,
2013-05-30 20:53:00,81.6,63.5,30.13,SSW,199,0.4,3.9,55,0.00,,,0.00,WX3IN1Plus v1.30,2013-05-31 00:53:00,
2013-05-30 20:58:00,81.4,63.3,30.13,WSW,240,1.4,5.1,55,0.00,,,0.00,WX3IN1Plus v1.30,2013-05-31 00:58:00,
2013-05-30 21:03:00,81.2,63.8,30.13,WSW,255,0.7,4.3,56,0.00,,,0.00,WX3IN1Plus v1.30,2013-05-31 01:03:00,
2013-05-30 21:08:00,80.9,63.3,30.13,SW,223,1.2,4.0,56,0.00,,,0.00,WX3IN1Plus v1.30,2013-05-31 01:08:00,
2013-05-30 21:13:00,80.4,63.5,30.13,WSW,243,1.3,4.2,57,0.00,,,0.00,WX3IN1Plus v1.30,2013-05-31 01:13:00,
2013-05-30 21:18:00,80.5,63.5,30.13,WSW,241,2.6,4.1,57,0.00,,,0.00,WX3IN1Plus v1.30,2013-05-31 01:18:00,
2013-05-30 21:23:00,80.3,64.2,30.13,South,170,0.0,4.7,58,0.00,,,0.00,WX3IN1Plus v1.30,2013-05-31 01:23:00,
2013-05-30 21:28:00,80.1,64.2,30.13,SSE,168,0.0,3.1,59,0.00,,,0.00,WX3IN1Plus v1.30,2013-05-31 01:28:00,
2013-05-30 21:33:00,79.8,63.8,30.13,SSE,168,0.0,0.0,59,0.00,,,0.00,WX3IN1Plus v1.30,2013-05-31 01:33:00,
2013-05-30 21:38:00,79.5,63.5,30.13,WSW,241,0.9,1.9,59,0.00,,,0.00,WX3IN1Plus v1.30,2013-05-31 01:38:00,
2013-05-30 21:43:00,79.7,64.4,30.13,SSW,212,2.5,3.9,60,0.00,,,0.00,WX3IN1Plus v1.30,2013-05-31 01:43:00,
2013-05-30 21:48:00,79.0,63.8,30.14,SW,219,0.8,2.9,60,0.00,,,0.00,WX3IN1Plus v1.30,2013-05-31 01:48:00,
2013-05-30 21:53:00,79.1,64.4,30.14,SW,234,0.0,2.1,61,0.00,,,0.00,WX3IN1Plus v1.30,2013-05-31 01:53:00,
2013-05-30 21:58:00,78.9,64.2,30.14,SW,234,0.0,0.0,61,0.00,,,0.00,WX3IN1Plus v1.30,2013-05-31 01:58:00,
2013-05-30 22:03:00,78.9,64.4,30.14,SW,234,0.0,0.0,62,0.00,,,0.00,WX3IN1Plus v1.30,2013-05-31 02:03:00,
2013-05-30 22:08:00,78.4,63.8,30.14,SW,234,0.0,0.0,62,0.00,,,0.00,WX3IN1Plus v1.30,2013-05-31 02:08:00,
2013-05-30 22:13:00,78.2,64.4,30.14,SW,234,0.0,0.0,63,0.00,,,0.00,WX3IN1Plus v1.30,2013-05-31 02:13:00,
2013-05-30 22:18:00,77.9,64.4,30.14,SW,234,0.0,0.0,64,0.00,,,0.00,WX3IN1Plus v1.30,2013-05-31 02:18:00,
2013-05-30 22:23:00,77.4,63.8,30.14,SW,234,0.0,0.0,64,0.00,,,0.00,WX3IN1Plus v1.30,2013-05-31 02:23:00,
2013-05-30 22:28:00,77.4,64.4,30.14,SW,234,0.0,0.0,65,0.00,,,0.00,WX3IN1Plus v1.30,2013-05-31 02:28:00,
2013-05-30 22:33:00,77.1,64.4,30.15,SW,234,0.0,0.0,66,0.00,,,0.00,WX3IN1Plus v1.30,2013-05-31 02:33:00,
2013-05-30 22:38:00,76.9,64.2,30.15,SW,234,0.0,0.0,66,0.00,,,0.00,WX3IN1Plus v1.30,2013-05-31 02:38:00,
2013-05-30 22:43:00,76.5,64.4,30.15,SW,234,0.0,0.0,67,0.00,,,0.00,WX3IN1Plus v1.30,2013-05-31 02:43:00,
2013-05-30 22:48:00,76.2,64.4,30.15,SW,234,0.0,0.0,68,0.00,,,0.00,WX3IN1Plus v1.30,2013-05-31 02:48:00,
2013-05-30 22:53:00,75.8,64.7,30.15,SW,234,0.0,0.0,69,0.00,,,0.00,WX3IN1Plus v1.30,2013-05-31 02:53:00,
2013-05-30 22:58:00,75.6,64.4,30.15,SW,234,0.0,0.0,69,0.00,,,0.00,WX3IN1Plus v1.30,2013-05-31 02:58:00,
2013-05-30 23:03:00,75.3,64.4,30.15,SW,234,0.0,0.0,70,0.00,,,0.00,WX3IN1Plus v1.30,2013-05-31 03:03:00,
2013-05-30 23:08:00,75.1,64.2,30.15,SW,234,0.0,0.0,70,0.00,,,0.00,WX3IN1Plus v1.30,2013-05-31 03:08:00,
2013-05-30 23:13:00,75.2,64.9,30.15,SW,234,0.0,0.0,71,0.00,,,0.00,WX3IN1Plus v1.30,2013-05-31 03:13:00,
2013-05-30 23:18:00,74.9,64.9,30.15,SW,234,0.0,0.0,72,0.00,,,0.00,WX3IN1Plus v1.30,2013-05-31 03:18:00,
2013-05-30 23:23:00,74.5,64.7,30.15,SW,234,0.0,0.0,72,0.00,,,0.00,WX3IN1Plus v1.30,2013-05-31 03:23:00,
2013-05-30 23:28:00,74.1,64.7,30.14,SW,234,0.0,0.0,73,0.00,,,0.00,WX3IN1Plus v1.30,2013-05-31 03:28:00,
2013-05-30 23:33:00,74.1,64.9,30.15,SW,234,0.0,0.0,74,0.00,,,0.00,WX3IN1Plus v1.30,2013-05-31 03:33:00,
2013-05-30 23:38:00,73.8,64.7,30.15,SW,234,0.0,0.0,74,0.00,,,0.00,WX3IN1Plus v1.30,2013-05-31 03:38:00,
2013-05-30 23:43:00,73.5,64.4,30.15,SW,234,0.0,0.0,74,0.00,,,0.00,WX3IN1Plus v1.30,2013-05-31 03:43:00,
2013-05-30 23:48:00,73.5,64.4,30.15,SW,234,0.0,0.0,74,0.00,,,0.00,WX3IN1Plus v1.30,2013-05-31 03:48:00,
2013-05-30 23:53:00,73.3,64.4,30.15,SW,234,0.0,0.0,75,0.00,,,0.00,WX3IN1Plus v1.30,2013-05-31 03:53:00,
2013-05-30 23:58:00,73.4,64.4,30.15,SW,234,0.0,0.0,74,0.00,,,0.00,WX3IN1Plus v1.30,2013-05-31 03:58:00,